Regional Weather Roundup
Issued by NWS

Home | Current Version | Previous Version | Text Only | Print | Product List | Glossary On
Versions: 1 2 3 4 5 6 7 8 9 10 11 12 13 14 15 16 17 18 19 20 21 22 23 24 25 26 27 28
000
ASUS45 KPSR 022010
RWRAZ

ARIZONA HOURLY REGIONAL WEATHER ROUNDUP
NATIONAL WEATHER SERVICE PHOENIX AZ
100 PM MST MON MAY 02 2016

NOTE: FAIR INDICATES FEW OR NO CLOUDS BELOW 12,000 FEET WITH NO
SIGNIFICANT WEATHER AND/OR OBSTRUCTIONS TO VISIBILITY.

AZZ001>003-036-022100-
NORTHWEST ARIZONA

CITY           SKY/WX    TMP DP  RH WIND       PRES   REMARKS
BULLHEAD CITY  FAIR      84  39  20 NW14      30.00F
KINGMAN        FAIR      72  34  24 VRB6      30.09F
$$

AZZ004>008-015-016-018-022100-
NORTH CENTRAL ARIZONA

CITY           SKY/WX    TMP DP  RH WIND       PRES   REMARKS
GRAND CANYON   PTSUNNY   54  34  46 NE14G22   30.23S
WILLIAMS       LGT RAIN  46  39  76 S7G15     30.27S
PRESCOTT       PTSUNNY   63  34  33 VRB5      30.13F
FLAGSTAFF      FAIR      50  35  56 S7        30.22F
PAYSON         FAIR      63  32  31 VRB6G13   30.16F
PAGE           PTSUNNY   63  39  41 E5        30.18F
$$

AZZ009>014-017-022100-
NORTHEAST ARIZONA

CITY           SKY/WX    TMP DP  RH WIND       PRES   REMARKS
WINSLOW        FAIR      62  42  47 N7        30.17F
SAINT JOHNS    PTSUNNY   62  34  35 NW8       30.15F
WINDOW ROCK    CLOUDY    53  34  48 VRB3      30.23F
SHOW LOW       PTSUNNY   54  34  47 CALM      30.19F
$$

AZZ023-022100-
GREATER PHOENIX AREA

CITY           SKY/WX    TMP DP  RH WIND       PRES   REMARKS
PHOENIX        FAIR      83  37  19 E6        29.95F
BUCKEYE        FAIR      81  37  21 SW6       29.99F
GLENDALE       MOSUNNY   82  39  21 W6        29.98F
LUKE AFB       FAIR      83  38  20 VRB1      29.96F
DEER VALLEY    FAIR      81  35  19 S6        29.97F
SCOTTSDALE     FAIR      81  34  18 VRB6      29.99F
MESA-FALCON    MOSUNNY  N/A N/A N/A NE12      29.95F
MESA-GATEWAY   MOSUNNY   82  36  18 VRB7      29.98F
CHANDLER       MOSUNNY   82  36  18 S9        29.97F
$$

AZZ027-028-022100-
SOUTHWEST MARICOPA COUNTY AND PINAL COUNTY

CITY           SKY/WX    TMP DP  RH WIND       PRES   REMARKS
CASA GRANDE    FAIR     N/A N/A N/A MISG        N/A
GILA BEND      MOSUNNY   85  35  16 N9        29.93S
$$

AZZ503-504-507>509-022100-
SOUTHEAST ARIZONA

CITY           SKY/WX    TMP DP  RH WIND       PRES   REMARKS
TUCSON         FAIR      81  27  14 E9        30.01F
DAVIS-MONTHAN  FAIR      79  28  15 VRB2      29.99F
RYAN FIELD     SUNNY     81  28  15 SE6       30.00
NOGALES        FAIR      77  25  14 W8        30.03F
SIERRA VISTA   FAIR      72  27  19 E8        30.10F
DOUGLAS        FAIR      73  31  21 MISG      30.08F
SAFFORD        FAIR      73  33  23 SE15G23   30.07F
$$

AZZ020-021-025-026-031-022100-
SOUTHWEST ARIZONA

CITY           SKY/WX    TMP DP  RH WIND       PRES   REMARKS
YUMA           FAIR      86  38  18 VRB7      29.94F
$$

CAZ031-033-041-043-047-048-061-022100-
SOUTHERN CALIFORNIA

CITY           SKY/WX    TMP DP  RH WIND       PRES   REMARKS
DOWNTOWN L.A.  FAIR      71  54  54 MISG      30.00F
L.A. AIRPORT   FAIR      64  53  67 W17       30.02F
SAN DIEGO      FAIR      70  54  56 W15       30.01S
BURBANK        FAIR      76  52  43 S6        29.99F
ONTARIO        FAIR      80  46  30 W5        29.99F
RIVERSIDE      FAIR      82  45  27 VRB7      29.97F
PALM SPRINGS   FAIR      86  41  20 SE9       29.97F
EL CENTRO NAS  FAIR      84  38  19 N6        29.95F
IMPERIAL       FAIR      87  41  19 VRB5      29.93F
BLYTHE         FAIR      86  41  20 SE8       29.95F
NEEDLES        FAIR      85  39  19 VRB3      29.98F
$$

NVZ020-UTZ003-022100-
SOUTHERN NEVADA-UTAH

CITY           SKY/WX    TMP DP  RH WIND       PRES   REMARKS
LAS VEGAS      FAIR      76  36  23 VRB3      30.04F
SALT LAKE CITY FAIR      67  28  23 NW8       30.19F
$$

NMZ009-TXZ055-022100-
NEW MEXICO-WEST TEXAS

CITY           SKY/WX    TMP DP  RH WIND       PRES   REMARKS
ALBUQUERQUE    MOSUNNY   56  32  40 VRB5      30.23F
EL PASO        FAIR      66  32  28 VRB6      30.17F
$$


........................KEY........................
SKY/WX - SKY CONDITION/WEATHER
TMP    - TEMPERATURE IN FAHRENHEIT
DP     - DEW POINT IN FAHRENHEIT
RH     - RELATIVE HUMIDITY IN PERCENT
WIND   - DIRECTION AND SPEED IN MILES PER HOUR (MPH)
VRB    - VARIABLE WIND DIRECTION
PRES   - MEAN SEA LEVEL PRESSURE IN INCHES OF MERCURY
         F - FALLING PRESSURE   R - RISING PRESSURE
         S - STEADY PRESSURE
VSB    - VISIBILITY IN MILES
HX     - HEAT INDEX IN FAHRENHEIT
WCI    - WIND CHILL INDEX IN FAHRENHEIT
TC     - TEMPERATURE IN CELSIUS WHICH IS ALSO KNOWN AS
         TEMPERATURE IN CENTIGRADE
AFB    - AIR FORCE BASE
         LUKE AFB IS LUKE AIR FORCE BASE
         DAVIS-MONTHAN IS DAVIS-MONTHAN AIR FORCE BASE
NAS    - NAVAL AIR STATION
         EL CENTRO NAS IS EL CENTRO NAVAL AIR STATION
N/A    - NOT AVAILABLE





USA.gov is the U.S. government's official web portal to all federal, state and local government web resources and services.